Regional Weather Roundup
Issued by NWS

Home | Current Version | Previous Version | Text Only | Print | Product List | Glossary Off
Versions: 1 2 3 4 5 6 7 8 9 10 11 12 13 14 15 16 17 18 19 20 21 22 23 24 25 26 27 28

000
ASUS45 KTFX 242210
RWRMT
MONTANA REGIONAL WEATHER ROUNDUP
NATIONAL WEATHER SERVICE GREAT FALLS MT
400 PM MDT TUE MAY 24 2016

NOTE: "FAIR" INDICATES FEW OR NO CLOUDS BELOW 12000 FEET WITH NO
SIGNIFICANT WEATHER AND/OR OBSTRUCTIONS TO VISIBILITY.

MTZ001>007-043-242300-
WEST OF THE DIVIDE

CITY           SKY/WX    TMP DP  RH WIND       PRES   REMARKS
KALISPELL      SUNNY     60  40  47 SE5       29.90F
MISSOULA       PTSUNNY   58  42  55 VRB5      29.92F
BUTTE          CLOUDY    50  35  56 SW8       29.91F
MULLAN PASS    RAIN      39  39 100 NW6       29.95S VSB 1/4
ANACONDA         N/A     55  37  50 S9        29.90R
DEER LODGE       N/A     46  43  87 NW15      29.92R
EUREKA           N/A     64  37  36 W7        29.88F
HAMILTON         N/A     61  39  44 N8        29.89F
LIBBY            N/A     64  37  36 SW3       29.88F
PLAINS           N/A     62  47  58 S1        29.93F
$$

MTZ008-052>055-242300-
SOUTHWEST MONTANA

CITY           SKY/WX    TMP DP  RH WIND       PRES   REMARKS
BOZEMAN        MOSUNNY   54  38  54 SW3       29.90F
DILLON         CLOUDY    55  36  48 NE8       29.88F
ENNIS          MOSUNNY   54  36  50 VRB5      29.94F
TWIN BRIDGES     N/A     56  34  43 SE5       29.89F
$$

MTZ009-010-012-014-046-048-049-054-242300-
EAST SLOPES AND CENTRAL MONTANA

CITY           SKY/WX    TMP DP  RH WIND       PRES   REMARKS
CUT BANK       PTSUNNY   57  40  52 VRB5      29.87F
GREAT FALLS    MOSUNNY   60  36  40 VRB3      29.87F
MALMSTROM AFB  MOSUNNY   59  40  50 N8        29.88F
HELENA         CLOUDY    60  40  47 N7        29.88F
CHOTEAU          N/A     59  39  47 VRB5      29.89S
CONRAD           N/A     58  44  59 CALM      29.92S
$$

MTZ011-013-016-021-045-047-050-051-242300-
NORTH CENTRAL MONTANA

CITY           SKY/WX    TMP DP  RH WIND       PRES   REMARKS
HAVRE          PTSUNNY   59  44  57 SW7G17    29.88F
LEWISTOWN      CLOUDY    53  42  66 SE3       29.90F
N BAR RANCH    LGT RAIN  48  46  93 NE8       29.93S
CHINOOK          N/A     57  45  62 W12G17    29.88S
$$

MTZ017>020-022>027-061-062-242300-
NORTHEAST MONTANA

CITY           SKY/WX    TMP DP  RH WIND       PRES   REMARKS
GLASGOW        CLOUDY    61  42  49 W13       29.87S
JORDAN           N/A     62  38  40 W8        29.88F
SIDNEY         PTSUNNY   70  39  32 SW13      29.87S
WOLF POINT     MOSUNNY   68  41  37 W12       29.87F
PLENTYWOOD       N/A     64  39  39 SW13G21   29.87F
POPLAR           N/A     66  39  37 W14G20    29.87F
SCOBEY           N/A     62  36  38 SW20      29.87S
$$

MTZ028>42-056>058-242300-
SOUTHCENTRAL AND SOUTHEAST MONTANA

CITY           SKY/WX    TMP DP  RH WIND       PRES   REMARKS
BAKER          PTSUNNY   69  38  32 SE6       29.86F
BILLINGS       CLOUDY    61  38  42 N12       29.88S
LIVINGSTON     CLOUDY    58  37  45 N3        29.87F
MILES CITY     PTSUNNY   70  41  34 N6        29.85F
EKALAKA          N/A     70  34  26 SE6       29.86F
FORSYTH          N/A     64  43  45 N6        29.85F
$$

REGIONAL REPORTS...DAKOTAS

CITY           SKY/WX    TMP DP  RH WIND       PRES   REMARKS
WILLISTON      PTSUNNY   70  37  29 SW14      29.87F
MINOT          MOSUNNY   78  39  24 S12G18    29.87F
DICKINSON      PTSUNNY   70  36  28 S6G17     29.86F
BEACH            N/A     70  36  28 W5        29.90F
CROSBY           N/A     68  36  30 SW17G23   29.88S
WATFORD CITY     N/A     70  39  32 SW9G17    29.89S
BISMARCK       MOSUNNY   78  43  28 S9        29.87S
GRAND FORKS    MOSUNNY   78  47  33 S5        29.86F
FARGO          SUNNY     84  43  23 NW8       29.84F
BUFFALO SD       N/A     75  41  29 SE12G25   29.78F
RAPID CITY     MOSUNNY   69  44  40 E8        29.84F
$$

REGIONAL REPORTS...WYOMING/IDAHO/WASHINGTON

CITY           SKY/WX    TMP DP  RH WIND       PRES   REMARKS
GILLETTE       CLOUDY    71  35  26 S7        29.82F
SHERIDAN       MOSUNNY   66  39  37 E3        29.82F
BUFFALO WY     PTSUNNY   63  37  38 S10       29.86F
CODY           CLOUDY    52  45  76 CALM      29.88F
YELLOWSTONE LA   N/A     49  28  44 VRB3      29.93F
IDAHO FALLS    CLOUDY    63  35  35 VRB3      29.83F
SALMON         MOSUNNY   57  36  44 N6        29.86F
BOISE          MOSUNNY   71  32  23 NW9G20    29.82F
SPOKANE        PTSUNNY   58  48  69 E3        29.92F
$$

REGIONAL REPORTS...ALBERTA

CITY           SKY/WX    TMP DP  RH WIND       PRES   REMARKS
EDMONTON       PTSUNNY   61  45  55 S8        29.85S
CALGARY        MOSUNNY   61  39  44 SE8       29.85S
LETHBRIDGE     MOSUNNY   57  43  58 N6        29.87S
MEDICINE HAT   LGT RAIN  54  50  87 W7        29.87S
WATERTON GATE    N/A     55  37  50 SW14        N/A
CARDSTON         N/A     59  41  51 W2          N/A
MILK RIVER       N/A     57  43  58 NW3         N/A
$$

REGIONAL REPORTS...SASKATCHEWAN

CITY           SKY/WX    TMP DP  RH WIND       PRES   REMARKS
SWIFT CURRENT  CLOUDY    55  45  67 NW8       29.81R
REGINA         MOSUNNY   59  48  67 SW7       29.84S
CYPRESS HILLS    N/A     45  39  81 N6          N/A
VAL MARIE        N/A     54  46  76 W3          N/A
ROCKGLEN         N/A     54  45  71 W9          N/A
$$




USA.gov is the U.S. government's official web portal to all federal, state and local government web resources and services.